Location: Dąbrówka
(52.2799°N, 15.8070°E)
Time: 07:12:39
(UTC+01:00)

ISS - Pass Details

Date: 02 February 2019
Orbit: 403 x 411 km, 51.6° (Epoch: 17 February)

Event Time Altitude Azimuth Distance (km) Brightness Sun altitude
Rises 19:40:48 0° 282° (WNW) 2,341 1.3 -26.9°
Reaches altitude 10° 19:42:58 10° 274° (W) 1,479 0.0 -27.2°
Enters shadow 19:44:18 21° 262° (W) 998 -1.2 -27.4°
